Starlink 3393

operational
NORAD ID: 51132 Int'l Des: 2022-005 Owner: SPXS Country: US Constellation: starlink
LEOCIRCULAR

关于 Starlink 3393

正在加载描述...

实时位置

正在加载3D地球...

即将过境

高度历史

Altitude vs Time

uPlot chart will show altitude changes over time

两行轨道根数

1 51132U 22005AE 26063.11187713 .00001342 00000-0 10238-3 0 9994
2 51132 53.2186 324.1627 0001235 81.0956 279.0176 15.08841929227880
Epoch: Mar 4, 2026 • Age: 16 hours

当前状态

高度 544.2 km
速度 7.60 km/s
星下点 47.37°N, 46.83°E
发射日期 Jan 19, 2022
运行时间 4.1 years
类型 internet

技术详情

分类 Payload
质量 297.00 kg
干质量 275.00 kg
总质量 297.00 kg
长度 0.20 m
直径 2.80 m
跨度 9.00 m
形状 Box + pan
制造商 SPXS
平台类型 Starlink
阶段状态 In Orbit
所有者/国家 SPXS/US

大型星座

Loading constellations...